Location: Oklahoma City
(35.4680°N, 97.5160°W)
Time: 17:16:45
(UTC-05:00)

ISS - All Passes

Search period start: 22 September 2014 00:00
Search period end: 02 October 2014 00:00
Orbit: 413 x 416 km, 51.6° (Epoch: 22 September)

Date Brightness Start Highest point End Pass type
(mag) Time Alt. Az. Time Alt. Az. Time Alt. Az.
22 Sep - 02:09:07 10° SW 02:12:26 84° SE 02:15:46 10° NE night (unlit)
22 Sep - 03:47:46 10° WNW 03:49:31 14° NNW 03:51:17 10° N night (unlit)
22 Sep - 08:40:36 10° NNW 08:43:29 27° NE 08:46:21 10° E daylight
22 Sep - 10:17:18 10° WNW 10:20:08 26° SW 10:22:57 10° S daylight
23 Sep - 01:20:28 10° SSW 01:23:36 41° SE 01:26:45 10° ENE night (unlit)
23 Sep - 02:57:54 10° W 03:00:26 20° NNW 03:02:58 10° NNE night (unlit)
23 Sep - 07:52:07 10° NNW 07:54:26 17° NNE 07:56:45 10° ENE daylight
23 Sep - 09:28:06 10° WNW 09:31:21 52° SW 09:34:34 10° SSE daylight
24 Sep - 00:32:14 10° S 00:34:49 21° SE 00:37:25 10° ENE night (unlit)
24 Sep - 02:08:22 10° W 02:11:23 31° NW 02:14:24 10° NNE night (unlit)
24 Sep - 07:03:55 10° N 07:05:17 12° NNE 07:06:40 10° NE daylight
24 Sep - 08:39:09 10° NW 08:42:29 78° NE 08:45:47 10° SE daylight
24 Sep - 23:45:01 10° SE 23:46:05 11° SE 23:47:08 10° ESE night (unlit)
25 Sep - 01:19:07 10° WSW 01:22:24 57° NW 01:25:41 10° NE night (unlit)
25 Sep - 02:59:09 10° NNW 02:59:42 10° NNW 03:00:15 10° NNW night (unlit)
25 Sep - 07:50:21 10° NW 07:53:31 40° NE 07:56:40 10° ESE daylight
25 Sep - 09:27:51 10° W 09:29:57 16° SW 09:32:03 10° SSW daylight
26 Sep - 00:30:09 10° SW 00:33:27 73° SE 00:36:46 10° NE night (unlit)
26 Sep - 02:08:32 10° WNW 02:10:29 15° NNW 02:12:27 10° N night (unlit)
26 Sep - 07:01:40 10° NNW 07:04:27 24° NNE 07:07:14 10° E daylight
26 Sep - 08:38:12 10° WNW 08:41:09 30° SW 08:44:06 10° SSE daylight
26 Sep - 23:41:30 10° SSW 23:44:34 35° SE 23:47:38 10° ENE night (unlit)
27 Sep - 01:18:40 10° W 01:21:19 22° NNW 01:23:59 10° NNE night (unlit)
27 Sep - 06:13:09 10° NNW 06:15:18 16° NNE 06:17:27 10° ENE visible
27 Sep - 07:48:59 10° NW 07:52:16 61° SW 07:55:32 10° SE daylight
27 Sep - 22:53:19 10° S 22:55:43 19° SE 22:58:06 10° E night (unlit)
28 Sep - 00:29:08 10° WSW 00:32:13 35° NW 00:35:19 10° NNE night (unlit)
28 Sep - 05:25:00 10° N 05:26:04 11° NNE 05:27:08 10° NE visible
28 Sep - 06:59:59 10° NW 07:03:18 67° NE 07:06:36 10° SE daylight
28 Sep - 23:39:51 10° SW 23:43:09 66° NW 23:46:28 10° NE night (unlit)
29 Sep - 01:19:21 10° NW 01:20:24 11° NNW 01:21:26 10° N night (unlit)
29 Sep - 06:11:08 10° NNW 06:14:15 35° NE 06:17:20 10° ESE visible
29 Sep - 07:48:22 10° W 07:50:44 18° SW 07:53:06 10° S daylight
29 Sep - 22:50:52 10° SW 22:54:09 62° SE 22:57:27 10° NE night (unlit)
30 Sep - 00:28:58 10° WNW 00:31:07 16° NNW 00:33:16 10° NNE night (unlit)
30 Sep - 05:22:25 10° NNW 05:25:05 22° NNE 05:27:45 10° E visible
30 Sep - 06:58:47 10° WNW 07:01:51 35° SW 07:04:53 10° SSE visible
30 Sep - 22:02:14 10° SSW 22:05:12 30° SE 22:08:10 10° ENE night (unlit)
30 Sep - 23:39:07 10° W 23:41:53 24° NNW 23:44:40 10° NNE night (unlit)
01 Oct - 04:33:52 10° N 04:35:50 15° NNE 04:37:48 10° ENE visible
01 Oct - 06:09:33 10° NW 06:12:52 72° SW 06:16:10 10° SE visible
01 Oct - 21:14:09 10° SSE 21:16:17 16° SE 21:18:24 10° E night (unlit)
01 Oct - 22:49:34 10° WSW 22:52:43 40° NW 22:55:53 10° NE night (unlit)
